Вернуться в каталог

COSMOS 2251 DEB

АктивенLEO
NORAD 35834·DEBRIS·🇷🇺 Russia

Запущен Jun 16, 1993 с Plesetsk Cosmodrome

Loading…

Ближайшие Пролёты (ближайшие 24 часа)

TLE

СвежийSource: Space-Track

Эпоха: Sep 14, 2026, 05:02 UTC

1 35834U 93036ATG 26257.21033206  .00000272  00000-0  15027-3 0  9992
2 35834  73.9321 174.2511 0111127 276.4378 234.7825 14.13160100701546

Отслеживайте COSMOS 2251 DEB в реальном времени с AllMySat

Download on the App Store